Atlantic - Newfoundland: Past 24 Hour Conditions

 

Grand Étang

08:00 PM AST 23 November 2014
This table is a summary of hourly weather conditions for the past 24 hours.
Date / Time
(AST)
Wind(knots) Conditions Visibility(km) Pressure(kPa) Air tempC) Relative humidity(%) Dew pointC)
23 November 2014
20:00 WNW 12 N/A N/A 102.0 4 75 0
19:00 WNW 16 N/A N/A 101.9 4 77 1
18:00 WNW 16 N/A N/A 101.9 5 79 1
17:00 W 15 N/A N/A 101.7 5 80 1
16:00 W 20 N/A N/A 101.6 5 80 2
15:00 W 21 gust 27 N/A N/A 101.5 5 79 2
14:00 W 20 gust 26 N/A N/A 101.4 5 80 2
13:00 W 21 gust 26 N/A N/A 101.3 5 81 2
12:00 WSW 19 gust 24 N/A N/A 101.3 4 84 2
11:00 WSW 20 N/A N/A 101.2 4 83 1
10:00 WSW 22 N/A N/A 101.2 4 84 1
9:00 W 18 N/A N/A 101.1 4 83 1
8:00 WSW 17 gust 22 N/A N/A 101.0 3 87 1
7:00 WSW 17 gust 23 N/A N/A 101.0 3 88 1
6:00 WSW 18 N/A N/A 100.9 3 89 1
5:00 WSW 19 N/A N/A 100.9 3 91 1
4:00 WSW 23 N/A N/A 100.9 3 88 1
3:00 WSW 22 gust 29 N/A N/A 100.9 4 87 2
2:00 WSW 27 gust 34 N/A N/A 100.9 4 89 2
1:00 WSW 22 gust 29 N/A N/A 100.9 3 90 2
0:00 WSW 27 gust 35 N/A N/A 100.9 3 85 1
22 November 2014
23:00 SW 25 gust 32 N/A N/A 100.9 4 83 1
22:00 SW 27 N/A N/A 100.9 3 78 -1
21:00 SSW 27 gust 35 N/A N/A 101.0 2 72 -2
20:00 SSW 19 gust 30 N/A N/A 101.1 0 76 -4
 
Map of Atlantic - Newfoundland marine weather areas Southwestern Grand Banks - 44138 Banquereau - 44139 Tail of the Bank - 44140 Nickerson Bank - 44251 Northeast Burgeo Bank - 44255 Blanc-Sablon Airport Cap Whittle Chevery Natashquan Airport Heath Point Miscou Island Grand Étang Ingonish Beach North Mountain St.Paul Island J.A. Douglas McCurdy Sydney Airport Charlottetown Airport East Point North Cape Argentia Bonavista Burgeo Cape Race Corner Brook Daniel's Harbour Englee Ferolle Point La Scie Port aux Basques Rocky Harbour Sagona Island St. Anthony Airport St. John's Int'l Airport St. Lawrence Stephenville Airport Twillingate Winterland Wreckhouse Cartwright Airport Mary's Harbour Grates Cove Pool's Island Marticot Island Long Pond Îles de la Madeleine Airport
Legend: buoyBuoy land stationLand Station